Back to catalog

STARLINK-35130

AliveCommunicationsVLEO
NORAD 65740·PAYLOAD·🇺🇸 United States

Launched Sep 25, 2025 from Cape Canaveral Space Force Station

Loading…

Next Passes (next 24 hours)

TLE

FreshSource: CelesTrak SupGP

Epoch: Sep 14, 2026, 14:47 UTC

1 65740C 25216G   26257.61645833  .00065691  00000+0  19417-2 0  2573
2 65740  53.1570 173.5204 0001230  96.1343 309.4834 15.34345029    17

Track STARLINK-35130 in real time with AllMySat

Download on the App Store